Wetbulb
75.66 75.36 76.31 76.62 77.19 77.53 77.11 77.47 77.65 77.70 78.43 78.42 78.00 77.90 77.35 76.05 75.68 74.78 74.67 74.79 74.06 74.67 75.75 75.89 76.75 77.70 73.86 75.81 75.10 74.38 74.11 74.39 71.74 72.96 76.13 75.73 75.42 75.37 75.14 75.86 75.51 74.65 74.51
75.17 75.34 76.20 76.81 77.31 77.10 77.28 77.28 77.76 77.40 78.16 78.12 77.84 76.38 74.32 73.39 73.90 74.38 73.45 73.91 73.44 73.68 73.54 73.82 74.10 74.60 75.65 74.99 77.79 74.81 74.59 73.89 72.58 73.97 75.61 75.82 74.88 75.03 74.03 73.75 72.43 73.68 74.62
76.26 75.51 75.92 76.66 77.34 77.41 77.45 77.53 77.70 77.53 77.71 77.70 75.73 73.82 73.35 72.11 73.02 72.00 72.78 73.20 73.47 73.68 72.99 73.28 73.25 73.55 73.19 72.09 72.73 72.60 73.86 73.28 73.18 72.89 74.75 75.33 74.83 73.74 73.73 74.63 73.42 74.19 70.67
75.88 76.18 76.86 76.94 77.28 77.08 77.48 77.36 77.27 77.84 77.27 75.71 74.83 74.04 72.85 73.14 71.20 71.40 72.49 73.30 73.17 70.46 69.35 69.74 67.98 70.78 71.23 70.52 70.82 71.50 72.82 71.87 72.70 71.73 73.51 70.66 71.13 70.41 70.69 71.99 70.60 70.35 70.31
74.25 74.34 74.73 76.29 77.49 77.67 76.48 75.54 76.32 76.95 76.49 75.80 75.38 75.37 73.18 70.93 71.41 72.24 71.91 72.04 71.25 69.99 70.54 69.62 67.08 68.27 69.26 69.82 70.84 71.29 71.33 71.26 71.38 72.07 70.62 67.60 67.32 66.43 65.53 65.41 63.79 66.43 69.66
73.40 73.74 74.14 74.04 74.07 74.47 75.14 73.58 73.67 75.15 75.71 74.80 74.18 73.50 71.57 70.50 65.50 66.90 70.78 71.46 71.38 71.06 69.82 69.23 68.55 66.97 67.07 66.15 66.22 65.86 67.34 66.64 66.35 65.42 64.34 63.41 63.83 63.14 63.28 62.42 61.38 61.08 61.38
71.75 72.76 73.63 73.47 72.63 73.90 74.00 73.55 72.73 73.18 73.80 73.12 72.85 71.93 70.70 71.11 64.05 64.80 66.05 71.72 71.37 70.72 70.08 69.64 68.20 68.03 68.00 66.93 63.46 63.68 63.46 63.44 64.49 65.33 63.29 61.91 62.26 63.36 63.37 63.11 62.78 61.50 60.93
68.95 70.68 72.11 72.93 72.90 72.16 71.76 73.06 73.15 72.65 71.49 72.00 71.58 70.95 70.61 69.24 62.48 61.81 64.65 70.87 70.17 70.05 69.14 68.42 68.23 68.35 67.38 68.18 68.44 67.33 66.87 65.98 65.85 65.00 65.83 65.29 65.10 64.84 64.60 64.03 63.44 63.27 63.86
65.79 67.45 69.77 71.61 71.18 71.37 69.95 69.75 70.99 70.27 70.29 71.16 70.05 70.29 70.34 67.73 60.15 59.98 64.15 69.11 67.61 66.84 66.03 66.93 66.86 65.07 56.49 58.58 67.41 65.62 65.32 63.00 57.49 58.33 58.73 59.18 59.71 59.88 61.71 64.42 61.76 61.29 60.91
65.55 66.17 67.45 70.43 71.03 69.98 70.53 68.21 68.05 69.31 70.29 70.51 69.05 69.55 65.92 66.25 57.48 57.78 63.03 67.60 65.36 64.27 64.21 62.35 55.58 60.22 54.47 55.43 65.34 64.47 62.92 63.62 63.86 63.91 63.02 61.08 62.23 60.60 60.57 63.23 61.49 59.56 60.03
65.08 65.20 65.54 66.49 69.23 69.79 70.05 69.17 67.92 68.02 68.57 67.46 68.58 66.96 66.86 64.79 62.30 56.49 58.43 66.35 65.03 63.93 62.91 62.58 61.46 53.76 52.69 52.95 55.83 63.10 61.61 62.32 61.23 63.05 62.67 62.14 62.90 63.14 62.56 62.56 62.52 60.04 58.17
63.53 62.71 63.30 65.10 66.83 68.76 68.15 68.52 66.90 66.99 66.17 62.61 62.63 62.22 63.53 64.45 58.77 55.40 55.22 57.39 61.01 62.61 61.13 62.06 59.14 52.06 51.57 53.15 58.84 53.23 54.40 58.17 63.69 63.11 62.75 62.28 61.65 61.04 61.01 61.62 62.73 61.93 61.56
60.90 60.93 61.46 63.54 65.73 69.11 68.24 67.03 66.03 65.15 60.61 59.59 58.87 58.83 59.70 61.17 60.44 53.34 53.38 54.60 56.20 61.31 62.12 55.59 52.87 51.19 51.94 54.06 53.77 54.55 54.75 62.22 61.32 60.89 60.38 60.01 59.43 59.78 60.36 61.61 60.96 61.58 61.62
61.08 60.23 60.33 62.75 62.11 64.38 66.06 66.19 64.74 60.60 58.43 57.62 57.68 57.72 57.96 58.61 57.49 57.04 56.76 58.20 56.68 59.00 56.74 59.20 56.63 56.72 55.04 57.26 57.97 58.68 60.50 58.53 57.85 58.29 58.73 59.87 60.93 60.04 58.55 59.37 57.73 57.54 56.85
56.66 56.38 56.06 56.50 56.56 56.94 55.49 53.56 53.78 61.27 58.30 58.34 58.51 58.29 58.57 58.06 56.98 53.45 55.40 58.80 59.96 57.65 59.73 59.49 59.54 59.49 58.90 59.18 59.68 60.12 60.59 60.04 60.00 60.26 59.41 59.30 58.75 58.64 58.55 58.53 57.59 56.82 55.05
54.44 54.94 57.32 58.39 59.53 58.87 57.80 56.90 51.24 49.81 49.15 47.83 50.50 57.32 55.03 49.59 45.08 44.05 43.81 44.82 46.97 48.83 58.01 58.76 58.32 58.25 59.09 59.71 60.11 59.57 59.14 57.42 59.77 59.89 59.60 58.91 57.95 57.53 56.29 57.44 56.98 55.57 54.56
57.19 56.44 55.39 54.93 58.43 58.28 58.67 58.77 58.05 54.91 49.64 46.21 45.78 47.30 48.14 44.58 42.52 41.78 42.03 42.95 44.26 47.96 58.30 58.59 58.19 58.49 59.53 60.57 60.25 59.58 57.47 58.00 59.87 59.28 58.25 58.58 57.82 57.59 56.87 55.81 55.76 55.16 54.15
58.80 53.11 56.58 56.12 56.04 56.37 57.44 57.34 57.21 56.22 54.31 53.71 47.43 44.18 40.83 40.75 40.71 40.40 41.16 44.14 54.97 53.84 58.64 59.07 58.67 59.09 59.39 60.59 59.96 58.63 58.24 58.65 58.79 58.29 57.66 57.51 57.62 56.93 55.84 55.62 55.60 54.78 54.28
59.44 59.31 58.76 57.68 57.42 56.37 56.92 56.26 57.31 54.85 54.68 55.16 53.63 48.74 43.78 40.43 40.65 41.40 42.33 58.15 58.04 57.57 58.55 58.85 59.27 59.73 59.79 60.56 60.77 59.40 58.08 56.61 56.52 56.38 56.68 56.68 56.82 56.29 55.53 55.35 55.02 46.04 48.21
60.15 57.09 58.04 59.05 58.81 57.38 57.15 56.08 56.37 56.89 56.84 56.26 55.47 55.45 54.87 52.20 55.13 56.31 57.54 58.64 58.51 58.09 58.53 58.63 59.22 59.78 59.77 60.28 60.27 58.67 57.02 56.47 56.47 56.05 56.08 56.42 56.19 55.92 55.13 54.59 54.40 53.55 53.54
61.26 60.64 55.08 59.63 58.15 58.13 57.77 57.24 56.79 56.55 56.01 55.87 56.76 56.79 51.87 56.79 56.51 57.72 57.84 58.57 59.02 58.73 59.49 59.53 58.91 58.92 59.96 59.78 59.51 57.91 56.64 56.17 56.21 55.62 54.99 54.88 54.97 54.17 55.18 54.49 53.51 53.00 53.08
62.32 62.22 61.64 60.02 58.87 58.44 58.50 58.46 57.76 57.25 56.91 56.72 57.34 56.01 46.56 56.37 58.41 59.30 59.27 59.33 59.93 61.09 60.42 60.71 60.26 59.96 59.43 59.87 60.08 57.79 57.18 56.79 56.60 55.85 55.30 54.96 55.16 55.40 55.32 55.17 55.02 54.80 54.50
61.36 61.63 61.01 59.15 59.07 55.41 57.59 57.84 58.38 58.69 59.32 59.87 59.60 58.87 58.10 57.85 58.69 59.34 59.87 59.98 60.93 60.55 61.09 61.03 60.41 60.10 60.58 60.53 59.96 59.10 57.68 57.17 57.63 57.77 56.54 56.13 56.03 55.82 55.82 54.80 54.66 53.88 53.58
60.99 60.71 59.66 58.28 58.68 58.66 59.16 58.77 58.35 53.25 57.80 57.51 57.54 58.32 58.94 59.09 59.19 59.22 59.68 60.54 60.61 60.49 61.07 60.67 60.38 60.19 60.45 60.51 60.44 59.57 58.37 57.41 56.74 57.91 57.62 57.13 54.88 52.38 54.60 54.56 53.60 53.71 53.82
59.96 59.60 58.61 58.96 58.67 58.79 58.09 59.11 59.68 59.10 58.35 58.80 59.03 59.41 59.18 59.09 58.73 58.99 59.40 60.43 60.59 60.66 60.90 61.11 60.97 60.40 60.32 60.66 60.86 60.52 53.41 39.86 50.06 45.39 55.87 55.94 53.77 53.05 53.64 53.83 54.57 54.43 53.76
60.09 59.76 58.41 58.79 58.52 58.58 58.38 58.41 58.23 58.60 58.54 59.05 58.96 59.13 59.76 59.36 59.16 59.66 59.76 60.10 60.69 60.04 60.57 61.22 61.10 60.99 60.91 60.59 58.26 44.26 37.34 34.68 45.74 34.55 51.66 52.53 53.94 54.49 53.65 54.25 54.04 53.06 52.63
MSLP
1005.22 1005.27 1005.15 1007.38 1007.01 1006.73 1007.09 1006.87 1007.07 1007.16 1007.12 1007.82 1007.88 1008.07 1008.61 1008.87 1008.84 1009.03 1009.54 1010.10 1010.38 1010.11 1009.99 1010.11 1010.26 1010.10 1009.56 1009.84 1009.83 1010.00 1010.42 1010.52 1010.19 1009.43 1009.74 1010.58 1011.10 1011.13 1011.25 1011.81 1011.93 1011.95 1011.88
1006.20 1005.60 1003.80 1006.26 1006.97 1005.80 1006.14 1006.16 1006.22 1006.70 1006.62 1006.99 1007.28 1007.95 1008.50 1008.63 1008.66 1008.61 1008.03 1008.29 1009.27 1009.84 1009.63 1009.84 1009.97 1009.95 1009.65 1009.59 1009.64 1009.98 1010.33 1010.54 1010.42 1010.08 1010.42 1010.92 1011.01 1011.50 1011.87 1012.03 1011.94 1011.59 1011.50
1006.17 1005.68 1005.12 1005.77 1006.53 1005.82 1005.91 1006.10 1005.92 1006.07 1006.35 1006.72 1007.41 1007.79 1008.18 1008.61 1008.87 1009.09 1008.64 1009.01 1009.03 1009.41 1009.44 1009.61 1009.54 1009.60 1009.65 1009.66 1009.58 1009.94 1010.10 1010.30 1010.31 1010.31 1010.46 1010.77 1011.28 1011.58 1011.87 1011.91 1012.18 1012.21 1012.53
1005.86 1005.37 1005.41 1005.72 1005.65 1005.28 1005.52 1005.90 1006.00 1005.92 1006.36 1006.93 1007.40 1007.46 1007.79 1008.22 1008.61 1008.66 1008.91 1008.79 1009.48 1009.85 1009.72 1010.08 1010.23 1009.57 1009.56 1009.84 1010.04 1010.23 1010.10 1010.22 1010.33 1010.55 1010.97 1011.69 1011.87 1012.27 1011.91 1011.81 1012.36 1012.30 1012.64
1006.47 1006.35 1006.25 1006.01 1005.34 1005.09 1005.19 1005.44 1005.73 1005.93 1006.28 1006.79 1007.06 1007.34 1007.93 1008.04 1008.36 1008.53 1008.39 1009.01 1009.41 1009.64 1009.31 1010.22 1010.40 1010.48 1010.49 1010.29 1010.23 1010.09 1010.46 1010.59 1010.81 1011.03 1011.72 1012.42 1012.70 1012.79 1012.85 1012.82 1012.81 1012.73 1012.53
1006.55 1006.33 1006.15 1005.86 1005.65 1005.41 1005.25 1005.69 1005.83 1005.67 1005.74 1006.20 1006.63 1006.96 1007.47 1007.62 1008.57 1008.54 1008.67 1008.96 1008.48 1008.51 1009.38 1009.79 1010.62 1010.98 1010.90 1010.67 1010.59 1010.97 1010.82 1011.12 1011.62 1012.04 1012.79 1013.10 1013.46 1013.60 1013.51 1013.45 1013.36 1013.02 1012.33
1005.89 1005.66 1005.75 1005.74 1005.67 1005.57 1005.34 1005.37 1005.43 1005.48 1005.64 1005.82 1006.31 1006.82 1007.14 1007.67 1008.90 1008.82 1009.18 1008.45 1008.19 1008.46 1009.38 1009.81 1010.02 1010.65 1011.03 1011.19 1011.32 1011.38 1011.74 1011.80 1011.92 1012.45 1012.82 1013.25 1013.55 1013.94 1013.77 1013.71 1013.61 1013.38 1012.80
1006.07 1005.76 1005.53 1005.66 1005.55 1005.48 1005.51 1005.20 1005.20 1005.25 1005.50 1005.81 1006.19 1006.75 1007.15 1007.70 1008.64 1009.36 1009.54 1008.59 1008.55 1008.99 1009.79 1009.95 1010.17 1010.53 1010.99 1010.92 1010.85 1011.25 1011.74 1012.11 1012.32 1012.16 1012.25 1012.64 1013.20 1013.53 1013.39 1013.41 1013.44 1013.04 1012.47
1006.02 1005.52 1005.19 1005.05 1005.47 1005.28 1005.34 1005.30 1005.24 1005.36 1005.54 1005.60 1005.89 1006.46 1007.01 1007.76 1008.53 1009.24 1009.24 1008.82 1009.08 1009.57 1010.29 1010.46 1010.78 1011.27 1011.71 1011.53 1011.06 1011.45 1011.78 1012.07 1012.93 1013.05 1013.03 1013.35 1013.08 1012.80 1012.96 1012.47 1012.38 1012.26 1011.91
1005.86 1005.53 1005.24 1004.82 1004.77 1004.89 1004.88 1005.15 1005.34 1005.42 1005.55 1005.75 1006.27 1006.50 1006.88 1007.67 1008.46 1008.83 1009.04 1008.72 1009.10 1009.27 1010.46 1011.06 1011.51 1011.69 1012.13 1012.02 1011.39 1011.58 1011.89 1012.18 1012.43 1012.78 1013.16 1013.25 1012.92 1013.39 1013.09 1012.42 1012.23 1012.07 1012.01
1005.55 1005.32 1005.11 1004.78 1004.15 1004.36 1004.55 1004.89 1005.03 1005.48 1005.76 1006.09 1006.24 1006.66 1006.97 1007.66 1008.64 1009.05 1009.11 1008.45 1008.53 1008.85 1009.80 1010.31 1011.00 1012.30 1012.78 1012.66 1012.48 1012.05 1012.40 1012.53 1012.79 1012.36 1012.43 1012.14 1012.46 1012.52 1012.72 1012.71 1012.96 1012.66 1012.51
1005.52 1005.03 1004.77 1004.21 1003.78 1003.59 1004.00 1004.30 1004.68 1005.18 1005.51 1006.06 1006.35 1006.73 1007.28 1007.82 1008.52 1008.85 1008.97 1008.73 1008.75 1008.69 1009.62 1010.40 1011.90 1012.53 1013.27 1012.97 1012.66 1013.00 1013.02 1012.72 1011.91 1011.73 1011.71 1011.83 1012.02 1012.10 1012.66 1013.02 1013.11 1013.17 1012.98
1004.81 1004.41 1004.24 1003.96 1003.36 1003.28 1003.55 1004.03 1004.57 1005.10 1005.61 1006.29 1006.36 1006.53 1007.30 1007.98 1008.47 1009.01 1009.01 1009.51 1009.67 1009.26 1010.28 1011.59 1012.46 1012.71 1012.86 1013.12 1013.32 1013.32 1013.28 1012.19 1011.92 1011.90 1011.99 1012.22 1012.50 1012.80 1013.01 1012.66 1012.69 1012.50 1012.48
1004.54 1004.09 1004.13 1003.85 1003.71 1003.41 1003.80 1004.32 1004.65 1005.16 1005.64 1006.09 1006.78 1007.44 1007.58 1009.34 1008.37 1009.04 1009.56 1010.02 1010.42 1010.68 1011.60 1012.11 1012.60 1012.49 1012.30 1012.87 1012.95 1012.72 1012.61 1012.79 1012.59 1012.34 1012.61 1012.56 1012.62 1012.43 1012.43 1012.45 1012.39 1012.01 1011.84
1005.93 1005.51 1005.27 1004.99 1004.85 1004.78 1005.04 1005.84 1005.76 1005.85 1005.79 1006.46 1006.93 1007.47 1007.86 1008.70 1010.00 1008.26 1009.33 1009.89 1010.17 1010.35 1011.22 1011.97 1011.75 1011.87 1011.86 1011.96 1012.23 1012.47 1012.57 1012.50 1012.58 1012.95 1012.93 1012.68 1012.57 1012.54 1012.34 1012.43 1012.34 1011.94 1012.02
1007.04 1006.82 1006.33 1005.95 1005.58 1005.68 1006.05 1006.27 1006.97 1007.35 1007.01 1006.14 1008.47 1007.37 1009.42 1009.63 1009.75 1009.70 1010.35 1010.79 1010.92 1011.40 1011.29 1011.10 1011.28 1011.19 1011.29 1011.49 1011.66 1011.90 1012.08 1012.67 1012.74 1012.79 1012.86 1012.74 1012.44 1012.29 1012.29 1012.34 1012.20 1012.13 1012.01
1007.51 1007.31 1007.39 1007.30 1007.23 1007.26 1007.21 1007.02 1007.45 1007.78 1007.61 1008.97 1010.25 1008.90 1009.51 1010.40 1010.65 1011.53 1011.50 1011.44 1011.70 1011.68 1011.05 1010.86 1010.73 1010.90 1010.97 1011.57 1011.67 1011.67 1011.83 1012.42 1013.28 1012.80 1012.67 1012.54 1012.55 1012.33 1012.60 1012.38 1012.29 1012.19 1012.23
1008.69 1008.35 1008.16 1008.33 1008.01 1008.42 1008.60 1008.76 1008.15 1008.44 1009.13 1010.66 1011.37 1011.16 1011.98 1011.53 1012.14 1011.93 1011.73 1011.77 1011.72 1011.74 1011.09 1010.62 1010.61 1010.76 1011.04 1011.44 1011.52 1011.58 1011.90 1012.34 1012.41 1012.52 1012.43 1012.47 1012.33 1012.38 1012.15 1012.02 1012.04 1012.16 1012.03
1008.87 1008.89 1008.92 1008.64 1009.04 1009.40 1009.70 1009.69 1009.64 1009.72 1010.85 1011.71 1011.95 1011.68 1012.68 1013.04 1012.69 1012.09 1011.94 1011.40 1010.84 1010.77 1010.43 1010.41 1010.65 1010.73 1010.93 1011.18 1011.51 1011.87 1012.36 1012.23 1012.33 1012.30 1012.23 1012.20 1012.27 1012.15 1012.14 1012.14 1012.08 1012.51 1012.63
1009.41 1009.51 1008.86 1008.69 1008.76 1008.97 1009.53 1009.95 1010.20 1010.16 1010.38 1010.88 1011.11 1011.55 1012.13 1012.64 1012.26 1011.58 1011.03 1010.82 1010.68 1010.46 1010.24 1010.24 1010.28 1010.68 1010.95 1011.19 1011.48 1011.75 1011.94 1011.97 1011.94 1012.03 1011.96 1012.08 1012.21 1012.31 1012.14 1012.14 1011.98 1011.80 1011.56
1008.87 1008.96 1009.41 1008.85 1008.83 1009.02 1009.22 1009.38 1009.69 1009.92 1010.31 1010.66 1010.70 1010.74 1010.92 1011.22 1010.82 1010.21 1009.92 1009.89 1010.01 1010.14 1010.12 1010.10 1010.06 1010.42 1010.83 1011.01 1011.35 1011.36 1011.37 1011.35 1011.38 1011.56 1011.73 1011.89 1012.02 1012.04 1012.01 1012.07 1011.85 1011.84 1011.75
1008.85 1009.08 1009.11 1009.21 1009.36 1009.46 1009.43 1009.43 1009.64 1009.73 1009.87 1009.99 1010.09 1010.67 1010.89 1010.50 1009.78 1009.39 1009.42 1009.50 1009.72 1010.02 1010.15 1010.32 1010.40 1010.19 1010.13 1010.22 1010.68 1010.87 1010.89 1011.03 1011.02 1011.29 1011.46 1011.61 1011.71 1011.56 1011.46 1011.52 1011.54 1011.32 1011.22
1008.65 1008.85 1009.08 1009.25 1009.43 1009.59 1009.51 1009.35 1009.21 1009.11 1008.95 1009.03 1009.24 1009.53 1009.89 1009.58 1009.26 1009.26 1009.29 1009.50 1009.65 1010.05 1010.15 1010.33 1010.47 1010.42 1010.12 1010.08 1010.36 1010.65 1010.62 1010.56 1010.73 1010.97 1011.07 1011.13 1010.99 1010.90 1010.81 1010.86 1010.87 1010.90 1010.96
1008.49 1008.81 1009.13 1009.28 1009.25 1009.01 1009.02 1009.22 1009.33 1009.44 1009.26 1009.22 1009.18 1009.16 1009.12 1009.09 1009.08 1009.13 1009.34 1009.32 1009.60 1009.91 1010.09 1010.30 1010.31 1010.24 1009.99 1009.97 1009.91 1010.18 1010.67 1011.09 1011.21 1010.99 1010.93 1010.95 1010.99 1011.14 1010.67 1010.32 1010.24 1010.25 1010.11
1008.51 1008.86 1009.16 1009.18 1009.21 1009.08 1009.20 1009.03 1008.98 1008.91 1009.03 1008.91 1008.72 1008.68 1008.59 1008.82 1008.90 1009.07 1009.21 1009.28 1009.41 1009.45 1009.59 1009.62 1009.58 1009.63 1009.65 1009.77 1009.96 1010.16 1010.53 1011.40 1011.57 1011.58 1011.29 1011.12 1011.24 1011.00 1010.56 1010.04 1009.65 1009.51 1009.34
1008.60 1008.90 1009.05 1009.09 1009.07 1009.02 1009.01 1008.91 1008.89 1008.81 1008.67 1008.49 1008.44 1008.44 1008.29 1008.29 1008.41 1008.49 1008.59 1008.87 1008.78 1008.82 1008.98 1008.99 1009.10 1009.64 1009.63 1009.52 1009.90 1010.76 1011.02 1011.48 1011.35 1011.55 1011.45 1011.16 1010.68 1010.17 1009.96 1009.24 1008.98 1008.90 1008.84
Wind_Speed
11 11 13 15 17 15 15 14 13 12 11 12 12 12 11 10 8 5 2 9 12 12 11 13 15 12 10 8 10 8 8 8 10 7 0 6 4 5 6 6 6 8 8
6 5 7 12 15 12 12 13 12 13 13 15 14 13 13 10 8 6 2 2 6 11 10 11 14 11 12 7 6 7 8 6 6 8 3 4 1 3 4 3 4 6 5
5 5 4 9 12 9 10 11 12 13 14 15 15 15 12 8 6 1 4 4 5 6 8 11 14 14 12 4 4 6 7 5 6 6 4 2 2 3 4 3 3 3 2
9 9 7 8 9 7 8 10 11 12 12 14 15 12 11 5 3 1 3 1 3 3 5 6 7 9 5 4 4 3 2 3 4 4 2 4 2 3 4 3 4 4 1
7 8 9 9 8 6 8 8 10 12 14 15 14 10 5 4 4 6 5 5 7 5 4 2 4 3 3 4 2 3 4 3 1 1 2 4 1 1 2 3 3 3 5
8 7 8 8 7 6 4 8 10 13 13 12 11 9 7 6 10 6 6 8 7 4 3 4 4 3 3 8 11 11 7 5 3 1 2 3 3 2 3 3 3 2 3
12 11 9 8 8 8 7 10 11 11 11 10 9 8 8 6 7 9 7 5 4 7 6 5 4 6 5 7 10 11 9 9 8 4 4 4 4 4 3 4 3 3 3
14 13 12 10 11 9 8 10 10 8 9 9 9 7 7 7 8 4 8 6 6 7 5 3 4 4 5 4 6 7 7 6 5 5 5 6 4 3 3 3 2 3 4
15 15 14 11 12 12 10 9 9 8 9 9 8 10 9 8 10 9 8 6 8 9 7 5 5 6 5 8 4 5 3 4 8 8 9 9 8 7 3 3 3 3 2
15 16 16 15 11 14 13 10 6 6 8 7 8 9 8 10 9 9 10 8 10 9 9 8 10 7 6 7 1 4 4 2 1 7 8 8 7 6 5 5 3 3 4
18 17 17 18 14 12 12 11 8 7 7 9 11 9 11 12 11 8 6 9 9 8 6 5 8 7 3 3 6 2 3 3 3 5 5 6 3 3 4 5 5 5 5
18 15 19 19 15 9 11 8 8 9 9 10 10 9 9 12 13 8 8 11 8 7 5 5 8 9 4 1 7 4 4 10 2 2 1 2 2 3 3 4 2 3 4
14 14 14 18 15 12 11 10 8 8 9 8 8 10 9 9 9 12 14 11 8 7 8 11 12 13 14 10 5 4 10 1 2 2 2 2 3 4 5 2 3 2 7
13 8 8 10 6 4 1 4 6 8 8 8 7 7 10 5 9 9 9 9 12 14 13 10 8 7 11 7 8 5 3 4 5 4 3 3 2 2 3 3 5 5 6
11 10 9 8 8 11 11 9 7 1 8 11 10 7 8 7 3 12 8 9 9 9 10 8 8 6 5 4 4 2 1 0 0 2 3 2 2 2 2 3 4 5 4
11 8 7 8 8 9 8 11 23 25 18 21 6 10 5 13 11 14 14 13 13 6 6 6 5 5 3 2 1 1 1 2 2 2 2 3 3 3 5 3 4 5 5
12 12 9 10 10 10 10 10 13 15 25 24 17 12 15 13 13 11 11 10 6 2 4 4 4 3 2 1 1 2 2 4 2 2 2 2 3 3 3 4 4 4 5
12 9 11 7 9 10 9 9 9 10 12 9 12 14 13 12 8 8 6 2 4 4 5 3 4 3 3 2 2 3 2 2 2 2 3 3 3 3 4 4 3 3 4
7 6 8 9 9 7 6 6 8 9 7 3 4 5 6 6 5 5 2 4 2 3 3 4 4 3 3 2 1 2 2 3 4 4 4 3 4 4 4 5 4 3 2
7 6 2 6 7 8 7 5 3 5 6 6 6 7 6 6 6 6 5 4 5 5 3 4 4 4 4 3 2 3 4 4 4 5 4 4 4 5 5 6 5 6 6
3 4 4 3 5 4 5 4 3 2 2 3 3 2 5 6 6 6 5 5 6 5 4 5 5 5 5 5 4 4 4 5 4 4 5 5 5 6 5 5 5 6 7
3 2 2 1 1 0 2 3 5 6 6 6 5 4 3 5 7 3 4 4 4 3 5 3 5 6 5 4 2 4 4 5 4 5 6 6 6 7 6 6 7 7 8
3 3 2 2 1 1 2 3 2 2 2 3 4 4 5 6 4 3 3 4 3 3 3 3 4 5 5 4 5 5 7 6 5 5 7 7 8 7 8 8 9 8 9
3 4 4 3 0 1 1 3 3 1 2 4 3 3 4 4 4 3 4 4 4 5 4 5 5 5 4 6 6 6 6 3 4 8 11 10 8 8 10 11 10 13 12
4 3 3 2 2 1 2 2 1 3 4 4 3 3 3 4 5 5 5 5 5 5 6 5 5 5 6 7 8 10 6 4 7 8 9 10 12 13 12 13 14 15 16
4 3 3 3 3 2 3 3 3 4 4 4 4 5 5 5 5 6 5 6 6 5 5 5 4 6 6 7 4 9 7 3 5 4 8 9 12 12 13 15 19 13 14
Wind_Direction
220 200 187 245 233 223 234 235 234 230 224 219 201 188 180 177 158 154 292 302 304 294 288 282 274 257 238 227 221 222 241 237 242 262 169 98 194 221 162 223 195 213 200
302 276 134 248 254 234 228 228 222 226 212 207 192 182 179 180 187 216 221 307 298 297 293 282 269 263 247 243 216 211 226 235 251 250 209 175 183 122 90 202 328 280 291
309 272 256 259 256 248 248 237 225 219 213 198 187 189 191 190 190 299 13 316 301 292 304 298 284 253 238 183 186 199 218 227 208 248 190 178 95 161 191 234 143 188 279
349 350 324 282 261 252 237 235 230 222 201 203 209 204 201 203 206 64 240 20 303 80 61 19 6 334 147 137 175 185 252 217 205 245 73 83 14 19 320 163 191 205 187
335 332 328 319 315 275 242 223 217 214 216 216 224 229 218 168 216 197 138 181 161 179 93 26 31 15 340 157 197 169 211 206 353 19 63 75 77 50 49 6 355 11 218
319 319 321 322 310 292 248 202 216 223 223 219 226 231 209 194 153 153 172 195 167 123 155 105 152 156 82 65 73 56 48 97 88 84 97 107 88 21 357 11 284 345 308
324 319 314 304 291 280 239 214 218 223 225 215 205 196 198 172 143 153 214 209 140 111 141 134 157 109 136 110 101 106 91 97 102 128 142 143 141 205 187 203 178 227 242
309 302 297 289 277 263 242 226 213 199 198 204 194 192 175 148 139 166 212 165 126 116 117 144 102 139 61 148 128 125 132 129 134 154 129 123 114 156 198 229 225 213 218
298 293 286 273 265 256 226 214 213 190 206 198 188 182 187 146 145 176 206 157 125 110 100 100 126 108 42 355 125 114 135 139 111 82 83 94 94 93 15 261 55 312 320
293 289 290 280 239 243 235 203 201 223 210 202 170 181 160 150 156 172 207 153 141 124 135 125 55 61 21 3 299 182 202 111 330 142 131 130 129 95 50 60 49 349 332
296 290 282 277 260 226 227 216 187 194 198 180 177 163 160 148 154 173 232 149 138 141 141 155 107 76 38 2 333 341 59 127 159 142 149 134 132 93 48 33 27 341 330
296 285 281 275 266 222 214 205 192 202 176 162 161 151 144 142 147 121 80 69 80 114 112 94 90 95 83 14 90 96 252 281 136 134 160 104 359 14 14 3 353 334 326
289 274 266 273 263 240 207 191 189 176 154 156 157 150 142 135 124 109 98 97 62 108 86 84 119 136 124 102 91 261 262 335 346 299 358 31 19 22 295 276 296 253 241
340 313 276 296 339 315 222 195 174 155 146 133 134 134 109 128 120 131 112 108 109 106 126 134 109 91 64 98 178 198 62 13 343 6 2 19 325 350 336 8 324 337 322
42 53 51 55 63 80 63 46 32 19 152 136 118 125 117 128 192 90 120 139 145 117 135 152 171 170 159 149 135 92 76 274 331 12 323 346 340 329 357 347 333 335 339
46 31 34 62 72 80 83 74 52 59 47 51 58 122 79 111 78 76 78 79 84 99 194 166 174 167 167 131 100 42 108 186 36 321 298 300 314 342 19 334 359 345 340
52 64 50 44 50 52 66 68 76 64 59 41 16 48 96 111 101 104 103 100 95 66 221 175 164 166 154 188 333 7 2 54 295 296 318 331 331 358 277 348 353 338 354
81 71 76 47 58 55 61 62 65 62 66 39 30 50 38 70 93 111 107 133 150 202 267 229 191 194 207 243 318 351 331 235 235 288 309 312 311 315 305 315 299 326 319
80 75 90 91 83 77 52 53 82 81 95 115 151 93 85 74 88 92 184 272 304 278 225 205 230 218 232 239 304 320 317 306 335 314 284 288 291 289 297 290 301 205 263
94 8 87 109 109 104 111 114 96 128 139 158 166 167 167 190 208 196 209 229 253 263 266 240 217 211 244 238 283 289 253 229 229 244 260 286 282 275 270 276 287 304 297
84 97 360 47 72 70 118 123 110 104 157 213 237 80 147 218 235 238 225 210 231 253 249 264 247 203 222 222 251 266 250 258 243 255 254 253 261 269 265 281 289 288 288
220 245 269 297 145 297 272 229 207 206 191 213 203 161 184 244 272 262 253 246 237 239 270 242 265 258 244 260 261 260 263 262 258 244 245 249 249 254 259 271 277 277 283
159 148 185 182 203 56 241 261 259 265 215 193 208 202 191 237 243 252 252 249 226 251 227 234 255 270 276 254 237 248 262 271 266 263 267 259 256 262 262 268 272 275 281
132 135 157 152 157 34 118 144 157 351 226 208 179 198 203 203 221 197 257 229 224 232 227 239 240 252 258 249 250 242 244 275 291 280 275 268 277 285 267 264 266 271 272
126 136 180 196 190 256 153 204 176 161 198 224 221 230 229 217 225 214 220 219 226 235 234 245 255 266 254 249 271 288 300 250 266 302 281 266 259 265 269 269 270 276 277
140 192 209 209 206 215 223 230 233 234 241 235 237 242 246 241 236 245 238 231 243 241 251 273 264 266 274 269 32 61 57 40 288 244 266 259 259 261 257 263 269 267 269